When you browse on this site, cookies collect data to enhance your experience and personalize the content and advertising you see.
Visit our Privacy Policy to learn more. By continuing to use the site, you agree to this use of cookies and data.

Meteo pe oră la Saint-Dizier

Astăzi, 9 Iulie, Joi

Timp Temperatura Precipitaţii Vânt Presiune Umiditate
00:00 +18°C° 0 mm 1 m/s 751 mmHg 92%
01:00 +18°C° 0 mm 1 m/s 750 mmHg 92%
02:00 +16°C° 0 mm 1 m/s 750 mmHg 93%
03:00 +16°C° 0 mm 1 m/s 750 mmHg 93%
04:00 +18°C° 0 mm 1 m/s 750 mmHg 92%
05:00 +19°C° 0 mm 1 m/s 750 mmHg 91%
06:00 +20°C° 0 mm 1 m/s 749 mmHg 90%
07:00 +20°C° 0 mm 2 m/s 750 mmHg 85%
08:00 +23°C° 0 mm 2 m/s 750 mmHg 79%
09:00 +25°C° 0 mm 3 m/s 750 mmHg 74%
10:00 +25°C° 0 mm 3 m/s 750 mmHg 71%
11:00 +26°C° 0 mm 4 m/s 749 mmHg 67%
12:00 +27°C° 0 mm 4 m/s 749 mmHg 63%
13:00 +28°C° 0 mm 4 m/s 749 mmHg 63%
14:00 +28°C° 0 mm 4 m/s 748 mmHg 62%
15:00 +28°C° 0 mm 4 m/s 748 mmHg 62%
16:00 +28°C° 0 mm 3 m/s 748 mmHg 66%
17:00 +27°C° 0 mm 3 m/s 747 mmHg 70%
18:00 +26°C° 0 mm 2 m/s 747 mmHg 75%
19:00 +25°C° 0 mm 2 m/s 747 mmHg 78%
20:00 +23°C° 0 mm 2 m/s 747 mmHg 80%
21:00 +21°C° 0 mm 2 m/s 748 mmHg 83%
22:00 +20°C° 0 mm 2 m/s 747 mmHg 86%
23:00 +19°C° 0 mm 2 m/s 747 mmHg 88%

Mâine, 10 Iulie, Vineri

Timp Temperatura Precipitaţii Vânt Presiune Umiditate
00:00 +19°C° 0 mm 2 m/s 747 mmHg 91%
01:00 +18°C° 0 mm 2 m/s 747 mmHg 92%
02:00 +18°C° 0 mm 2 m/s 747 mmHg 94%
03:00 +17°C° 0 mm 2 m/s 746 mmHg 95%
04:00 +18°C° 0 mm 2 m/s 746 mmHg 93%
05:00 +18°C° 0 mm 2 m/s 746 mmHg 92%
06:00 +19°C° 0 mm 3 m/s 746 mmHg 91%
07:00 +19°C° 0 mm 3 m/s 746 mmHg 87%
08:00 +20°C° 0 mm 4 m/s 747 mmHg 83%
09:00 +21°C° 0 mm 4 m/s 747 mmHg 79%
10:00 +21°C° 0.1 mm 4 m/s 747 mmHg 77%
11:00 +21°C° 0.1 mm 5 m/s 747 mmHg 76%
12:00 +21°C° 0.1 mm 5 m/s 747 mmHg 74%
13:00 +21°C° 0.1 mm 5 m/s 748 mmHg 73%
14:00 +21°C° 0.1 mm 5 m/s 748 mmHg 72%
15:00 +22°C° 0.1 mm 5 m/s 748 mmHg 71%
16:00 +21°C° 0.2 mm 4 m/s 748 mmHg 75%
17:00 +20°C° 0.2 mm 4 m/s 748 mmHg 80%
18:00 +19°C° 0.2 mm 3 m/s 749 mmHg 84%
19:00 +18°C° 0 mm 3 m/s 750 mmHg 86%
20:00 +16°C° 0 mm 3 m/s 750 mmHg 88%
21:00 +15°C° 0 mm 2 m/s 751 mmHg 90%
22:00 +14°C° 0 mm 2 m/s 751 mmHg 91%
23:00 +13°C° 0 mm 2 m/s 751 mmHg 91%

Poimâine, 11 Iulie, Sâmbătă

Timp Temperatura Precipitaţii Vânt Presiune Umiditate
00:00 +12°C° 0 mm 2 m/s 752 mmHg 91%
01:00 +10°C° 0 mm 2 m/s 752 mmHg 91%
02:00 +9°C° 0 mm 2 m/s 752 mmHg 90%
03:00 +10°C° 0 mm 1 m/s 753 mmHg 90%
04:00 +11°C° 0 mm 1 m/s 753 mmHg 88%
05:00 +12°C° 0 mm 1 m/s 753 mmHg 85%
06:00 +13°C° 0 mm 1 m/s 753 mmHg 83%
07:00 +14°C° 0 mm 2 m/s 754 mmHg 75%
08:00 +16°C° 0 mm 2 m/s 754 mmHg 68%
09:00 +18°C° 0 mm 2 m/s 754 mmHg 60%
10:00 +19°C° 0 mm 3 m/s 755 mmHg 58%
11:00 +20°C° 0 mm 3 m/s 755 mmHg 55%
12:00 +21°C° 0 mm 3 m/s 755 mmHg 53%
13:00 +21°C° 0 mm 3 m/s 755 mmHg 53%
14:00 +21°C° 0 mm 3 m/s 755 mmHg 54%
15:00 +21°C° 0 mm 3 m/s 755 mmHg 54%
16:00 +21°C° 0 mm 3 m/s 755 mmHg 60%
17:00 +20°C° 0 mm 3 m/s 755 mmHg 65%
18:00 +20°C° 0 mm 2 m/s 755 mmHg 71%
19:00 +18°C° 0 mm 2 m/s 755 mmHg 76%
20:00 +16°C° 0 mm 2 m/s 755 mmHg 80%
21:00 +14°C° 0 mm 2 m/s 755 mmHg 85%
22:00 +13°C° 0 mm 2 m/s 755 mmHg 87%
23:00 +13°C° 0 mm 2 m/s 755 mmHg 88%

12 Iulie, Duminică

Timp Temperatura Precipitaţii Vânt Presiune Umiditate
00:00 +12°C° 0 mm 2 m/s 755 mmHg 90%
01:00 +12°C° 0 mm 2 m/s 755 mmHg 90%
02:00 +10°C° 0 mm 2 m/s 755 mmHg 90%
03:00 +10°C° 0 mm 3 m/s 755 mmHg 89%
04:00 +11°C° 0 mm 3 m/s 755 mmHg 85%
05:00 +12°C° 0 mm 3 m/s 755 mmHg 80%
06:00 +13°C° 0 mm 3 m/s 755 mmHg 75%
07:00 +16°C° 0 mm 3 m/s 755 mmHg 70%
08:00 +18°C° 0 mm 4 m/s 755 mmHg 64%
09:00 +20°C° 0 mm 4 m/s 755 mmHg 59%
10:00 +21°C° 0 mm 4 m/s 755 mmHg 56%
11:00 +22°C° 0 mm 4 m/s 755 mmHg 53%
12:00 +23°C° 0 mm 4 m/s 755 mmHg 50%
13:00 +23°C° 0 mm 4 m/s 755 mmHg 50%
14:00 +23°C° 0 mm 4 m/s 754 mmHg 49%
15:00 +23°C° 0 mm 4 m/s 754 mmHg 49%
16:00 +24°C° 0 mm 3 m/s 754 mmHg 55%
17:00 +22°C° 0 mm 3 m/s 753 mmHg 61%
18:00 +21°C° 0 mm 2 m/s 753 mmHg 66%
19:00 +19°C° 0 mm 3 m/s 753 mmHg 69%
20:00 +18°C° 0 mm 3 m/s 753 mmHg 71%
21:00 +16°C° 0 mm 3 m/s 753 mmHg 74%
22:00 +14°C° 0 mm 3 m/s 753 mmHg 73%
23:00 +13°C° 0 mm 3 m/s 753 mmHg 73%

13 Iulie, Luni

Timp Temperatura Precipitaţii Vânt Presiune Umiditate
00:00 +13°C° 0 mm 3 m/s 752 mmHg 73%
01:00 +12°C° 0 mm 3 m/s 752 mmHg 75%
02:00 +12°C° 0 mm 3 m/s 752 mmHg 77%
03:00 +11°C° 0 mm 3 m/s 752 mmHg 79%
04:00 +12°C° 0 mm 3 m/s 751 mmHg 77%
05:00 +13°C° 0 mm 3 m/s 751 mmHg 76%
06:00 +14°C° 0 mm 3 m/s 751 mmHg 74%
07:00 +17°C° 0 mm 3 m/s 751 mmHg 69%
08:00 +19°C° 0 mm 3 m/s 751 mmHg 65%
09:00 +21°C° 0 mm 3 m/s 750 mmHg 60%
10:00 +22°C° 0 mm 3 m/s 750 mmHg 56%
11:00 +24°C° 0 mm 3 m/s 750 mmHg 52%
12:00 +25°C° 0 mm 3 m/s 750 mmHg 48%
13:00 +25°C° 0 mm 2 m/s 749 mmHg 47%
14:00 +26°C° 0 mm 1 m/s 748 mmHg 46%
15:00 +26°C° 0 mm 1 m/s 748 mmHg 45%
16:00 +25°C° 0 mm 1 m/s 748 mmHg 51%
17:00 +24°C° 0 mm 1 m/s 747 mmHg 57%
18:00 +24°C° 0 mm 1 m/s 747 mmHg 62%
19:00 +22°C° 0 mm 1 m/s 747 mmHg 66%
20:00 +19°C° 0 mm 1 m/s 747 mmHg 70%
21:00 +16°C° 0 mm 1 m/s 747 mmHg 73%
22:00 +16°C° 0 mm 1 m/s 747 mmHg 75%
23:00 +15°C° 0 mm 1 m/s 747 mmHg 76%

14 Iulie, Marţi

Timp Temperatura Precipitaţii Vânt Presiune Umiditate
00:00 +15°C° 0 mm 1 m/s 747 mmHg 78%
01:00 +15°C° 0 mm 1 m/s 747 mmHg 78%
02:00 +15°C° 0 mm 1 m/s 747 mmHg 78%
03:00 +15°C° 0 mm 1 m/s 747 mmHg 79%
04:00 +15°C° 0 mm 1 m/s 747 mmHg 78%
05:00 +16°C° 0 mm 1 m/s 747 mmHg 78%
06:00 +16°C° 0 mm 1 m/s 748 mmHg 77%
07:00 +18°C° 0 mm 2 m/s 748 mmHg 73%
08:00 +20°C° 0 mm 2 m/s 748 mmHg 68%
09:00 +21°C° 0 mm 3 m/s 748 mmHg 63%
10:00 +22°C° 0.2 mm 3 m/s 749 mmHg 62%
11:00 +23°C° 0.2 mm 4 m/s 749 mmHg 60%
12:00 +23°C° 0.2 mm 4 m/s 749 mmHg 58%
13:00 +23°C° 0.1 mm 5 m/s 749 mmHg 56%
14:00 +23°C° 0.1 mm 5 m/s 749 mmHg 54%
15:00 +25°C° 0.1 mm 5 m/s 749 mmHg 51%
16:00 +23°C° 0 mm 4 m/s 749 mmHg 57%
17:00 +22°C° 0 mm 3 m/s 749 mmHg 64%
18:00 +21°C° 0 mm 3 m/s 749 mmHg 70%
19:00 +19°C° 0 mm 2 m/s 749 mmHg 75%
20:00 +18°C° 0 mm 1 m/s 750 mmHg 81%
21:00 +15°C° 0 mm 1 m/s 750 mmHg 86%
22:00 +15°C° 0 mm 1 m/s 750 mmHg 87%
23:00 +13°C° 0 mm 0 m/s 751 mmHg 87%
Arată mai mult